User: anonymous   Login
Location: Unspecified
(0.0000°N, 0.0000°E)
Time: 12:22:41
(UTC+00:00)
Language:

NOSS 7 (D) - Orbit

View from above orbital plane
View from above orbital plane
View from above satellite
View from above satellite

Ground track
Ground track

The orbit data is extracted from the following two-line orbital elements,

1 16623U 86014D   17098.79257157 0.00001500  00000-0  20676-3 0    08
2 16623  63.3110  15.5068 0874941  56.2053 303.7947 13.44987101    04
Epoch (UTC): 08 April 2017 19:01:18
Eccentricity: 0.0874941
inclination: 63.3110°
perigee height: 437 km
apogee height: 1744 km
right ascension of ascending node: 15.5068°
argument of perigee: 56.2053°
revolutions per day: 13.44987101
mean anomaly at epoch: 303.7947°
orbit number at epoch: 0

The dashed part of the orbit path shows where the satellite is in the earth's shadow,  

DLR